Time,TemperatureF,DewpointF,PressureIn,WindDirection,WindDirectionDegrees,WindSpeedMPH,WindSpeedGustMPH,Humidity,HourlyPrecipIn,Conditions,Clouds,dailyrainin,SoftwareType,DateUTC
2013-08-02 00:01:00,65.8,65.8,29.79,SW,221,0.0,0.0,100,0.01,CLR,,0.00,WeatherDisplay:10.37,2013-08-02 04:01:00,
2013-08-02 00:02:00,65.8,65.8,29.79,SW,221,0.0,0.0,100,0.01,CLR,,0.00,WeatherDisplay:10.37,2013-08-02 04:02:00,
2013-08-02 00:03:00,65.8,65.8,29.79,SW,221,0.0,0.0,100,0.01,CLR,,0.00,WeatherDisplay:10.37,2013-08-02 04:03:00,
2013-08-02 00:08:00,65.8,65.8,29.79,SW,221,0.0,0.0,100,0.02,CLR,,0.01,WeatherDisplay:10.37,2013-08-02 04:08:00,
2013-08-02 00:13:00,65.8,65.8,29.78,SW,221,0.0,0.0,100,0.02,RA,,0.01,WeatherDisplay:10.37,2013-08-02 04:13:00,
2013-08-02 00:17:00,65.8,65.8,29.78,SW,221,0.0,0.0,100,0.02,RA,,0.01,WeatherDisplay:10.37,2013-08-02 04:17:00,
2013-08-02 00:22:00,66.0,66.0,29.78,SW,221,0.0,0.0,100,0.02,CLR,,0.01,WeatherDisplay:10.37,2013-08-02 04:22:00,
2013-08-02 00:27:00,65.8,65.8,29.79,SW,221,0.0,0.0,100,0.04,RA,,0.04,WeatherDisplay:10.37,2013-08-02 04:27:00,
2013-08-02 00:32:00,65.8,65.8,29.78,SW,221,0.0,0.0,100,0.07,RA,,0.06,WeatherDisplay:10.37,2013-08-02 04:32:00,
2013-08-02 00:37:00,66.0,66.0,29.78,SW,221,0.2,1.0,100,0.10,RA,,0.12,WeatherDisplay:10.37,2013-08-02 04:37:00,
2013-08-02 00:43:00,65.8,65.8,29.77,SW,221,0.1,1.1,100,0.18,RA,,0.18,WeatherDisplay:10.37,2013-08-02 04:43:00,
2013-08-02 00:48:00,65.8,65.8,29.77,SW,221,0.0,0.0,100,0.19,RA,,0.19,WeatherDisplay:10.37,2013-08-02 04:48:00,
2013-08-02 00:53:00,65.8,65.8,29.77,SW,221,0.0,0.0,100,0.19,RA,,0.19,WeatherDisplay:10.37,2013-08-02 04:53:00,
2013-08-02 00:58:00,65.8,65.8,29.77,SW,221,0.0,0.0,100,0.19,CLR,,0.19,WeatherDisplay:10.37,2013-08-02 04:58:00,
2013-08-02 01:03:00,65.8,65.8,29.76,SW,221,0.0,0.0,100,0.19,CLR,,0.19,WeatherDisplay:10.37,2013-08-02 05:03:00,
2013-08-02 01:08:00,65.8,65.8,29.76,SW,221,0.0,0.0,100,0.19,RA,,0.20,WeatherDisplay:10.37,2013-08-02 05:08:00,
2013-08-02 01:14:00,65.8,65.8,29.76,SW,221,0.0,0.0,100,0.19,RA,,0.20,WeatherDisplay:10.37,2013-08-02 05:14:00,
2013-08-02 01:19:00,65.8,65.8,29.76,SW,221,0.0,0.0,100,0.19,CLR,,0.20,WeatherDisplay:10.37,2013-08-02 05:19:00,
2013-08-02 01:24:00,65.8,65.8,29.76,SW,221,0.0,0.0,100,0.18,CLR,,0.20,WeatherDisplay:10.37,2013-08-02 05:24:00,
2013-08-02 01:29:00,65.8,65.8,29.76,SW,221,0.0,0.0,100,0.15,CLR,,0.20,WeatherDisplay:10.37,2013-08-02 05:29:00,
2013-08-02 01:34:00,65.8,65.8,29.76,SW,221,0.0,0.0,100,0.13,CLR,,0.20,WeatherDisplay:10.37,2013-08-02 05:34:00,
2013-08-02 01:39:00,65.6,65.6,29.76,SW,221,0.0,0.0,100,0.07,CLR,,0.20,WeatherDisplay:10.37,2013-08-02 05:39:00,
2013-08-02 01:45:00,65.6,65.6,29.75,SW,221,0.0,0.0,100,0.01,CLR,,0.20,WeatherDisplay:10.37,2013-08-02 05:45:00,
2013-08-02 01:50:00,65.6,65.6,29.75,SW,221,0.0,0.0,100,0.01,CLR,,0.20,WeatherDisplay:10.37,2013-08-02 05:50:00,
2013-08-02 01:55:00,65.6,65.6,29.75,SW,221,0.0,0.0,100,0.01,CLR,,0.20,WeatherDisplay:10.37,2013-08-02 05:55:00,
2013-08-02 02:00:00,65.6,65.6,29.75,SW,221,0.0,0.0,100,0.01,CLR,,0.20,WeatherDisplay:10.37,2013-08-02 06:00:00,
2013-08-02 02:05:00,65.6,65.6,29.74,SW,221,0.1,1.1,100,0.00,CLR,,0.20,WeatherDisplay:10.37,2013-08-02 06:05:00,
2013-08-02 02:10:00,65.6,65.6,29.74,SW,221,0.0,0.0,100,0.00,CLR,,0.20,WeatherDisplay:10.37,2013-08-02 06:10:00,
2013-08-02 02:15:00,65.6,65.6,29.74,SW,221,0.0,0.0,100,0.00,CLR,,0.20,WeatherDisplay:10.37,2013-08-02 06:15:00,
2013-08-02 02:20:00,65.6,65.6,29.74,SW,221,0.0,0.0,100,0.00,CLR,,0.20,WeatherDisplay:10.37,2013-08-02 06:20:00,
2013-08-02 02:25:00,65.6,65.6,29.74,SW,221,0.0,0.0,100,0.00,CLR,,0.20,WeatherDisplay:10.37,2013-08-02 06:25:00,
2013-08-02 02:31:00,65.6,65.6,29.74,SW,221,0.0,0.0,100,0.00,CLR,,0.20,WeatherDisplay:10.37,2013-08-02 06:31:00,
2013-08-02 02:36:00,65.6,65.6,29.74,SW,221,0.0,0.0,100,0.00,CLR,,0.20,WeatherDisplay:10.37,2013-08-02 06:36:00,
2013-08-02 02:41:00,65.6,65.6,29.74,SW,221,0.0,0.0,100,0.00,CLR,,0.20,WeatherDisplay:10.37,2013-08-02 06:41:00,
2013-08-02 02:46:00,65.6,65.6,29.74,SW,221,0.0,0.0,100,0.00,CLR,,0.20,WeatherDisplay:10.37,2013-08-02 06:46:00,
2013-08-02 02:51:00,65.6,65.6,29.74,SW,221,0.0,0.0,100,0.00,CLR,,0.20,WeatherDisplay:10.37,2013-08-02 06:51:00,
2013-08-02 02:56:00,65.6,65.6,29.74,SW,221,0.0,0.0,100,0.00,CLR,,0.20,WeatherDisplay:10.37,2013-08-02 06:56:00,
2013-08-02 03:01:00,65.6,65.6,29.74,SW,221,0.0,0.0,100,0.00,CLR,,0.20,WeatherDisplay:10.37,2013-08-02 07:01:00,
2013-08-02 03:06:00,65.6,65.6,29.74,SW,221,0.0,0.0,100,0.00,CLR,,0.20,WeatherDisplay:10.37,2013-08-02 07:06:00,
2013-08-02 03:12:00,65.6,65.6,29.74,SW,221,0.2,1.1,100,0.00,CLR,,0.20,WeatherDisplay:10.37,2013-08-02 07:12:00,
2013-08-02 03:16:00,65.6,65.6,29.75,SW,221,0.0,0.0,100,0.00,CLR,,0.20,WeatherDisplay:10.37,2013-08-02 07:16:00,
2013-08-02 03:22:00,65.6,65.6,29.75,SW,221,0.0,0.0,100,0.00,CLR,,0.20,WeatherDisplay:10.37,2013-08-02 07:22:00,
2013-08-02 03:27:00,65.6,65.6,29.75,SW,221,0.0,0.0,100,0.00,CLR,,0.20,WeatherDisplay:10.37,2013-08-02 07:27:00,
2013-08-02 03:32:00,65.6,65.6,29.75,SW,221,0.0,0.0,100,0.00,CLR,,0.20,WeatherDisplay:10.37,2013-08-02 07:32:00,
2013-08-02 03:37:00,65.6,65.6,29.74,SW,221,0.0,0.0,100,0.00,CLR,,0.20,WeatherDisplay:10.37,2013-08-02 07:37:00,
2013-08-02 03:43:00,65.6,65.6,29.73,SW,221,0.0,0.0,100,0.00,CLR,,0.20,WeatherDisplay:10.37,2013-08-02 07:43:00,
2013-08-02 03:48:00,65.6,65.6,29.74,SW,221,0.0,0.0,100,0.00,CLR,,0.20,WeatherDisplay:10.37,2013-08-02 07:48:00,
2013-08-02 03:53:00,65.6,65.6,29.74,SW,221,0.0,0.0,100,0.00,CLR,,0.20,WeatherDisplay:10.37,2013-08-02 07:53:00,
2013-08-02 03:58:00,65.6,65.6,29.74,SW,221,0.0,0.0,100,0.00,CLR,,0.20,WeatherDisplay:10.37,2013-08-02 07:58:00,
2013-08-02 04:03:00,65.6,65.6,29.74,SW,221,0.0,0.0,100,0.00,CLR,,0.20,WeatherDisplay:10.37,2013-08-02 08:03:00,
2013-08-02 04:08:00,65.6,65.6,29.74,SW,221,0.0,0.0,100,0.00,CLR,,0.20,WeatherDisplay:10.37,2013-08-02 08:08:00,
2013-08-02 04:13:00,65.6,65.6,29.74,SW,221,0.0,0.0,100,0.00,CLR,,0.20,WeatherDisplay:10.37,2013-08-02 08:13:00,
2013-08-02 04:19:00,65.5,65.5,29.74,SW,221,0.0,0.0,100,0.00,CLR,,0.20,WeatherDisplay:10.37,2013-08-02 08:19:00,
2013-08-02 04:24:00,65.5,65.5,29.74,SW,221,0.0,0.0,100,0.00,CLR,,0.20,WeatherDisplay:10.37,2013-08-02 08:24:00,
2013-08-02 04:29:00,65.5,65.5,29.75,SW,221,0.0,1.0,100,0.00,CLR,,0.20,WeatherDisplay:10.37,2013-08-02 08:29:00,
2013-08-02 04:34:00,65.5,65.5,29.75,SW,221,0.0,0.0,100,0.00,CLR,,0.20,WeatherDisplay:10.37,2013-08-02 08:34:00,
2013-08-02 04:39:00,65.5,65.5,29.76,SW,221,0.0,0.0,100,0.00,CLR,,0.20,WeatherDisplay:10.37,2013-08-02 08:39:00,
2013-08-02 04:45:00,65.5,65.5,29.76,SW,221,0.0,0.0,100,0.00,CLR,,0.20,WeatherDisplay:10.37,2013-08-02 08:45:00,
2013-08-02 04:50:00,65.5,65.5,29.76,SW,221,0.0,0.0,100,0.00,CLR,,0.20,WeatherDisplay:10.37,2013-08-02 08:50:00,
2013-08-02 04:55:00,65.3,65.3,29.76,SW,221,0.0,0.0,100,0.00,CLR,,0.20,WeatherDisplay:10.37,2013-08-02 08:55:00,
2013-08-02 05:00:00,65.2,65.2,29.76,SW,221,0.0,0.0,100,0.00,CLR,,0.20,WeatherDisplay:10.37,2013-08-02 09:00:00,
2013-08-02 05:05:00,65.2,65.2,29.76,SW,221,0.0,0.0,100,0.00,CLR,,0.20,WeatherDisplay:10.37,2013-08-02 09:05:00,
2013-08-02 05:11:00,65.2,65.2,29.76,SW,221,0.0,0.0,100,0.00,CLR,,0.20,WeatherDisplay:10.37,2013-08-02 09:11:00,
2013-08-02 05:16:00,65.2,65.2,29.76,SW,221,0.0,0.0,100,0.00,CLR,,0.20,WeatherDisplay:10.37,2013-08-02 09:16:00,
2013-08-02 05:21:00,65.0,65.0,29.77,SW,221,0.0,0.0,100,0.00,,,0.20,WeatherDisplay:10.37,2013-08-02 09:21:00,
2013-08-02 05:27:00,64.8,64.8,29.77,SW,221,0.0,0.0,100,0.00,,,0.20,WeatherDisplay:10.37,2013-08-02 09:27:00,
2013-08-02 05:32:00,64.7,64.7,29.77,SW,221,0.0,0.0,100,0.00,,,0.20,WeatherDisplay:10.37,2013-08-02 09:32:00,
2013-08-02 05:37:00,64.5,64.5,29.77,SW,221,0.0,0.0,100,0.00,,,0.20,WeatherDisplay:10.37,2013-08-02 09:37:00,
2013-08-02 05:42:00,64.2,64.2,29.77,SW,221,0.0,0.0,100,0.00,,,0.20,WeatherDisplay:10.37,2013-08-02 09:42:00,
2013-08-02 05:47:00,64.0,64.0,29.78,SW,221,0.0,0.0,100,0.00,,,0.20,WeatherDisplay:10.37,2013-08-02 09:47:00,
2013-08-02 05:52:00,63.9,63.9,29.78,SW,221,0.0,0.0,100,0.00,,,0.20,WeatherDisplay:10.37,2013-08-02 09:52:00,
2013-08-02 05:57:00,63.7,63.7,29.78,SW,221,0.0,0.0,100,0.00,,,0.20,WeatherDisplay:10.37,2013-08-02 09:57:00,
2013-08-02 06:03:00,63.5,63.5,29.78,SW,221,0.0,0.0,100,0.00,,,0.20,WeatherDisplay:10.37,2013-08-02 10:03:00,
2013-08-02 06:08:00,63.4,63.4,29.79,SW,221,0.0,0.0,100,0.00,,,0.20,WeatherDisplay:10.37,2013-08-02 10:08:00,
2013-08-02 06:13:00,63.2,63.2,29.79,SW,221,0.0,0.0,100,0.00,,,0.20,WeatherDisplay:10.37,2013-08-02 10:13:00,
2013-08-02 06:18:00,63.1,63.1,29.79,SW,221,0.0,0.0,100,0.00,,,0.20,WeatherDisplay:10.37,2013-08-02 10:18:00,
2013-08-02 06:23:00,62.9,62.9,29.79,SW,221,0.0,0.0,100,0.00,,,0.20,WeatherDisplay:10.37,2013-08-02 10:23:00,
2013-08-02 06:28:00,62.9,62.9,29.79,SW,221,0.0,0.0,100,0.00,,,0.20,WeatherDisplay:10.37,2013-08-02 10:28:00,
2013-08-02 06:33:00,62.7,62.7,29.79,SW,221,0.0,0.0,100,0.00,,,0.20,WeatherDisplay:10.37,2013-08-02 10:33:00,
2013-08-02 06:38:00,62.7,62.7,29.79,SW,221,0.0,0.0,100,0.00,,,0.20,WeatherDisplay:10.37,2013-08-02 10:38:00,
2013-08-02 06:44:00,62.9,62.9,29.79,SW,221,0.0,0.0,100,0.00,,,0.20,WeatherDisplay:10.37,2013-08-02 10:44:00,
2013-08-02 06:49:00,62.9,62.9,29.79,SW,221,0.0,0.0,100,0.00,,,0.20,WeatherDisplay:10.37,2013-08-02 10:49:00,
2013-08-02 06:54:00,63.1,63.1,29.79,SW,221,0.0,0.0,100,0.00,,,0.20,WeatherDisplay:10.37,2013-08-02 10:54:00,
2013-08-02 06:59:00,63.2,63.2,29.80,SW,221,0.0,0.0,100,0.00,,,0.20,WeatherDisplay:10.37,2013-08-02 10:59:00,
2013-08-02 07:05:00,63.4,63.4,29.80,SW,221,0.0,0.0,100,0.00,,,0.20,WeatherDisplay:10.37,2013-08-02 11:05:00,
2013-08-02 07:09:00,63.4,63.4,29.80,SW,221,0.0,0.0,100,0.00,,,0.20,WeatherDisplay:10.37,2013-08-02 11:09:00,
2013-08-02 07:15:00,63.5,63.5,29.80,SW,221,0.0,0.0,100,0.00,,,0.20,WeatherDisplay:10.37,2013-08-02 11:15:00,
2013-08-02 07:20:00,63.7,63.7,29.80,SW,221,0.0,0.0,100,0.00,,,0.20,WeatherDisplay:10.37,2013-08-02 11:20:00,
2013-08-02 07:25:00,63.7,63.7,29.81,SW,221,0.0,0.0,100,0.00,,,0.20,WeatherDisplay:10.37,2013-08-02 11:25:00,
2013-08-02 07:30:00,63.9,63.9,29.81,SW,221,0.0,0.0,100,0.00,,,0.20,WeatherDisplay:10.37,2013-08-02 11:30:00,
2013-08-02 07:35:00,64.0,64.0,29.81,SW,221,0.0,0.0,100,0.00,,,0.20,WeatherDisplay:10.37,2013-08-02 11:35:00,
2013-08-02 07:40:00,64.2,64.2,29.81,SW,221,0.0,0.0,100,0.00,,,0.20,WeatherDisplay:10.37,2013-08-02 11:40:00,
2013-08-02 07:46:00,64.2,64.2,29.81,SW,221,0.0,0.0,100,0.00,,,0.20,WeatherDisplay:10.37,2013-08-02 11:46:00,
2013-08-02 07:51:00,64.3,64.3,29.81,SW,221,0.0,0.0,100,0.00,,,0.20,WeatherDisplay:10.37,2013-08-02 11:51:00,
2013-08-02 07:56:00,64.7,64.7,29.81,SW,221,0.0,0.0,100,0.00,,,0.20,WeatherDisplay:10.37,2013-08-02 11:56:00,
2013-08-02 08:01:00,64.8,64.8,29.81,SW,221,0.0,0.0,100,0.00,,,0.20,WeatherDisplay:10.37,2013-08-02 12:01:00,
2013-08-02 08:07:00,65.0,65.0,29.81,SW,221,0.0,0.0,100,0.00,,,0.20,WeatherDisplay:10.37,2013-08-02 12:07:00,
2013-08-02 08:12:00,65.3,65.3,29.81,SW,221,0.0,0.0,100,0.00,,,0.20,WeatherDisplay:10.37,2013-08-02 12:12:00,
2013-08-02 08:17:00,65.3,65.3,29.81,WSW,245,1.2,3.5,100,0.00,,,0.20,WeatherDisplay:10.37,2013-08-02 12:17:00,
2013-08-02 08:22:00,65.3,65.3,29.81,WSW,246,1.6,2.3,100,0.00,,,0.20,WeatherDisplay:10.37,2013-08-02 12:22:00,
2013-08-02 08:27:00,65.2,65.2,29.81,WNW,302,0.9,3.5,100,0.00,,,0.20,WeatherDisplay:10.37,2013-08-02 12:27:00,
2013-08-02 08:32:00,65.3,65.3,29.82,WNW,302,0.1,0.0,100,0.00,,,0.20,WeatherDisplay:10.37,2013-08-02 12:32:00,
2013-08-02 08:37:00,65.3,65.3,29.82,WNW,302,0.0,0.0,100,0.00,,,0.20,WeatherDisplay:10.37,2013-08-02 12:37:00,
2013-08-02 08:42:00,65.3,65.3,29.82,NW,304,0.0,0.0,100,0.00,,,0.20,WeatherDisplay:10.37,2013-08-02 12:42:00,
2013-08-02 08:47:00,65.3,65.3,29.82,NW,304,0.1,1.1,100,0.00,,,0.20,WeatherDisplay:10.37,2013-08-02 12:47:00,
2013-08-02 08:53:00,65.6,65.6,29.82,NW,304,0.0,0.0,100,0.00,,,0.20,WeatherDisplay:10.37,2013-08-02 12:53:00,
2013-08-02 08:58:00,65.8,65.8,29.82,NW,304,0.4,1.1,100,0.00,,,0.20,WeatherDisplay:10.37,2013-08-02 12:58:00,
2013-08-02 09:03:00,66.0,66.0,29.81,NW,304,0.0,0.0,100,0.00,,,0.20,WeatherDisplay:10.37,2013-08-02 13:03:00,
2013-08-02 09:08:00,66.6,66.6,29.81,SW,229,0.0,2.3,100,0.00,,,0.20,WeatherDisplay:10.37,2013-08-02 13:08:00,
2013-08-02 09:13:00,66.9,66.6,29.82,SW,230,0.0,0.0,99,0.00,,,0.20,WeatherDisplay:10.37,2013-08-02 13:13:00,
2013-08-02 09:18:00,66.9,66.0,29.82,SW,230,0.0,0.0,97,0.00,CLR,,0.20,WeatherDisplay:10.37,2013-08-02 13:18:00,
2013-08-02 09:24:00,67.3,66.7,29.82,SW,229,0.0,0.0,98,0.00,CLR,,0.20,WeatherDisplay:10.37,2013-08-02 13:24:00,
2013-08-02 09:29:00,67.4,66.2,29.82,North,9,0.6,2.3,96,0.00,CLR,,0.20,WeatherDisplay:10.37,2013-08-02 13:29:00,
2013-08-02 09:34:00,67.8,65.4,29.82,NE,55,2.5,4.6,92,0.00,CLR,,0.20,WeatherDisplay:10.37,2013-08-02 13:34:00,
2013-08-02 09:39:00,68.6,65.9,29.82,NW,308,0.0,1.1,91,0.00,CLR,,0.20,WeatherDisplay:10.37,2013-08-02 13:39:00,
2013-08-02 09:44:00,69.3,66.2,29.82,NW,312,0.0,0.0,90,0.00,CLR,,0.20,WeatherDisplay:10.37,2013-08-02 13:44:00,
2013-08-02 09:49:00,69.6,65.6,29.82,NW,309,0.0,0.0,87,0.00,CLR,,0.20,WeatherDisplay:10.37,2013-08-02 13:49:00,
2013-08-02 09:55:00,69.8,66.1,29.82,WNW,284,0.6,2.3,88,0.00,CLR,,0.20,WeatherDisplay:10.37,2013-08-02 13:55:00,
2013-08-02 10:00:00,70.1,66.7,29.82,WNW,299,0.0,0.0,89,0.00,CLR,,0.20,WeatherDisplay:10.37,2013-08-02 14:00:00,
2013-08-02 10:05:00,70.6,66.5,29.82,WNW,299,0.0,0.0,87,0.00,CLR,,0.20,WeatherDisplay:10.37,2013-08-02 14:05:00,
2013-08-02 10:10:00,71.3,65.9,29.82,NW,309,0.5,2.3,83,0.00,CLR,,0.20,WeatherDisplay:10.37,2013-08-02 14:10:00,
2013-08-02 10:15:00,72.0,66.9,29.82,West,272,1.5,3.5,84,0.00,CLR,,0.20,WeatherDisplay:10.37,2013-08-02 14:15:00,
2013-08-02 10:21:00,72.3,66.1,29.82,WNW,286,0.0,2.3,81,0.00,CLR,,0.20,WeatherDisplay:10.37,2013-08-02 14:21:00,
2013-08-02 10:26:00,72.8,67.7,29.83,WNW,287,0.9,4.0,84,0.00,CLR,,0.20,WeatherDisplay:10.37,2013-08-02 14:26:00,
2013-08-02 10:31:00,73.3,66.0,29.83,NW,306,0.9,2.3,78,0.00,CLR,,0.20,WeatherDisplay:10.37,2013-08-02 14:31:00,
2013-08-02 10:37:00,73.5,66.2,29.83,WNW,296,0.6,3.5,78,0.00,CLR,,0.20,WeatherDisplay:10.37,2013-08-02 14:37:00,
2013-08-02 10:42:00,73.5,66.2,29.83,WSW,249,1.0,2.3,78,0.00,CLR,,0.20,WeatherDisplay:10.37,2013-08-02 14:42:00,
2013-08-02 10:47:00,73.5,66.2,29.83,WSW,256,0.9,2.3,78,0.00,CLR,,0.20,WeatherDisplay:10.37,2013-08-02 14:47:00,
2013-08-02 10:53:00,73.9,65.5,29.83,WNW,296,4.3,5.8,75,0.00,CLR,,0.20,WeatherDisplay:10.37,2013-08-02 14:53:00,
2013-08-02 10:58:00,73.7,65.3,29.83,NW,309,2.6,3.5,75,0.00,CLR,,0.20,WeatherDisplay:10.37,2013-08-02 14:58:00,
2013-08-02 11:03:00,73.7,67.1,29.83,WNW,294,0.2,3.5,80,0.00,CLR,,0.20,WeatherDisplay:10.37,2013-08-02 15:03:00,
2013-08-02 11:09:00,74.0,66.3,29.83,SSW,207,2.5,5.8,77,0.00,CLR,,0.20,WeatherDisplay:10.37,2013-08-02 15:09:00,
2013-08-02 11:14:00,74.2,64.6,29.83,SSW,203,3.4,5.8,72,0.00,CLR,,0.20,WeatherDisplay:10.37,2013-08-02 15:14:00,
2013-08-02 11:19:00,74.4,65.2,29.83,WNW,294,0.1,1.1,73,0.00,CLR,,0.20,WeatherDisplay:10.37,2013-08-02 15:19:00,
2013-08-02 11:24:00,75.1,65.5,29.83,WNW,300,0.2,1.1,72,0.00,CLR,,0.20,WeatherDisplay:10.37,2013-08-02 15:24:00,
2013-08-02 11:29:00,76.0,66.3,29.83,WNW,298,2.7,5.8,72,0.00,CLR,,0.20,WeatherDisplay:10.37,2013-08-02 15:29:00,
2013-08-02 11:34:00,76.7,65.8,29.83,West,259,0.8,2.3,69,0.00,CLR,,0.20,WeatherDisplay:10.37,2013-08-02 15:34:00,
2013-08-02 11:40:00,77.0,66.0,29.83,NW,310,0.1,1.1,69,0.00,CLR,,0.20,WeatherDisplay:10.37,2013-08-02 15:40:00,
2013-08-02 11:45:00,77.6,64.9,29.83,WNW,293,1.9,3.5,65,0.00,CLR,,0.20,WeatherDisplay:10.37,2013-08-02 15:45:00,
2013-08-02 11:50:00,77.7,65.9,29.83,West,259,1.3,3.5,67,0.00,CLR,,0.20,WeatherDisplay:10.37,2013-08-02 15:50:00,
2013-08-02 11:55:00,77.4,66.4,29.83,WNW,302,2.1,3.5,69,0.00,CLR,,0.20,WeatherDisplay:10.37,2013-08-02 15:55:00,
2013-08-02 12:01:00,77.2,65.8,29.83,NW,311,2.2,3.5,68,0.00,CLR,,0.20,WeatherDisplay:10.37,2013-08-02 16:01:00,
2013-08-02 12:06:00,77.2,65.0,29.82,West,267,0.8,3.5,66,0.00,CLR,,0.20,WeatherDisplay:10.37,2013-08-02 16:06:00,
2013-08-02 12:11:00,78.1,67.1,29.83,WNW,290,2.1,3.5,69,0.00,CLR,,0.20,WeatherDisplay:10.37,2013-08-02 16:11:00,
2013-08-02 12:16:00,78.6,67.2,29.83,WSW,258,2.5,3.5,68,0.00,CLR,,0.20,WeatherDisplay:10.37,2013-08-02 16:16:00,
2013-08-02 12:21:00,78.8,65.1,29.83,WNW,302,3.5,4.0,63,0.00,CLR,,0.20,WeatherDisplay:10.37,2013-08-02 16:21:00,
2013-08-02 12:26:00,78.6,65.4,29.83,WNW,302,4.6,5.8,64,0.00,CLR,,0.20,WeatherDisplay:10.37,2013-08-02 16:26:00,
2013-08-02 12:31:00,78.8,66.0,29.82,WSW,238,1.3,2.3,65,0.00,CLR,,0.20,WeatherDisplay:10.37,2013-08-02 16:31:00,
2013-08-02 12:37:00,78.1,64.9,29.82,SW,215,1.6,3.5,64,0.00,CLR,,0.20,WeatherDisplay:10.37,2013-08-02 16:37:00,
2013-08-02 12:42:00,77.7,63.2,29.82,WNW,302,0.4,2.0,61,0.00,CLR,,0.20,WeatherDisplay:10.37,2013-08-02 16:42:00,
2013-08-02 12:47:00,78.1,64.0,29.82,SW,220,0.8,5.8,62,0.00,CLR,,0.20,WeatherDisplay:10.37,2013-08-02 16:47:00,
2013-08-02 12:52:00,77.6,64.9,29.81,SSW,198,0.2,1.1,65,0.00,CLR,,0.20,WeatherDisplay:10.37,2013-08-02 16:52:00,
2013-08-02 12:57:00,77.4,67.3,29.81,WSW,237,0.1,1.1,71,0.00,CLR,,0.20,WeatherDisplay:10.37,2013-08-02 16:57:00,
2013-08-02 13:02:00,77.6,64.9,29.80,SW,235,0.2,5.8,65,0.00,CLR,,0.20,WeatherDisplay:10.37,2013-08-02 17:02:00,
2013-08-02 13:07:00,77.7,67.1,29.80,WNW,300,0.3,3.5,70,0.00,CLR,,0.20,WeatherDisplay:10.37,2013-08-02 17:07:00,
2013-08-02 13:12:00,78.3,66.9,29.80,SSW,207,1.1,2.3,68,0.00,CLR,,0.20,WeatherDisplay:10.37,2013-08-02 17:12:00,
2013-08-02 13:18:00,79.0,65.3,29.80,WSW,238,4.4,6.9,63,0.00,CLR,,0.20,WeatherDisplay:10.37,2013-08-02 17:18:00,
2013-08-02 13:23:00,79.4,65.7,29.80,WNW,282,2.5,4.6,63,0.00,CLR,,0.20,WeatherDisplay:10.37,2013-08-02 17:23:00,
2013-08-02 13:28:00,80.1,64.5,29.80,SW,229,0.3,1.1,59,0.00,CLR,,0.20,WeatherDisplay:10.37,2013-08-02 17:28:00,
2013-08-02 13:33:00,80.3,67.0,29.79,WNW,300,1.9,3.5,64,0.00,CLR,,0.20,WeatherDisplay:10.37,2013-08-02 17:33:00,
2013-08-02 13:38:00,81.1,66.8,29.78,NW,309,0.7,1.1,62,0.00,CLR,,0.20,WeatherDisplay:10.37,2013-08-02 17:38:00,
2013-08-02 13:43:00,81.6,63.9,29.79,West,276,1.6,4.6,55,0.00,CLR,,0.20,WeatherDisplay:10.37,2013-08-02 17:43:00,
2013-08-02 13:48:00,82.2,66.4,29.79,WNW,296,1.4,2.3,59,0.00,CLR,,0.20,WeatherDisplay:10.37,2013-08-02 17:48:00,
2013-08-02 13:54:00,82.0,64.2,29.79,West,281,1.5,3.5,55,0.00,CLR,,0.20,WeatherDisplay:10.37,2013-08-02 17:54:00,
2013-08-02 13:59:00,82.0,65.8,29.80,NW,312,2.6,5.8,58,0.00,CLR,,0.20,WeatherDisplay:10.37,2013-08-02 17:59:00,
2013-08-02 14:04:00,81.6,63.9,29.80,West,266,1.5,3.5,55,0.00,CLR,,0.20,WeatherDisplay:10.37,2013-08-02 18:04:00,
2013-08-02 14:09:00,81.4,66.2,29.80,WNW,300,0.9,3.5,60,0.00,CLR,,0.20,WeatherDisplay:10.37,2013-08-02 18:09:00,
2013-08-02 14:14:00,80.9,63.7,29.80,WSW,254,0.4,2.3,56,0.00,CLR,,0.20,WeatherDisplay:10.37,2013-08-02 18:14:00,
2013-08-02 14:20:00,80.9,63.7,29.80,WNW,286,6.7,9.2,56,0.00,CLR,,0.20,WeatherDisplay:10.37,2013-08-02 18:20:00,
2013-08-02 14:25:00,81.1,63.9,29.80,South,181,3.7,5.8,56,0.00,CLR,,0.20,WeatherDisplay:10.37,2013-08-02 18:25:00,
2013-08-02 14:30:00,81.1,63.9,29.80,WSW,248,2.4,4.0,56,0.00,CLR,,0.20,WeatherDisplay:10.37,2013-08-02 18:30:00,
2013-08-02 14:35:00,81.1,63.9,29.80,West,261,2.7,9.2,56,0.00,CLR,,0.20,WeatherDisplay:10.37,2013-08-02 18:35:00,
2013-08-02 14:40:00,81.2,64.0,29.80,SSW,198,1.5,4.6,56,0.00,CLR,,0.20,WeatherDisplay:10.37,2013-08-02 18:40:00,
2013-08-02 14:45:00,81.6,64.4,29.80,WSW,238,2.1,3.5,56,0.00,CLR,,0.20,WeatherDisplay:10.37,2013-08-02 18:45:00,
2013-08-02 14:50:00,81.8,65.6,29.81,WSW,248,1.7,6.9,58,0.00,CLR,,0.20,WeatherDisplay:10.37,2013-08-02 18:50:00,
2013-08-02 14:56:00,82.2,64.4,29.81,West,260,3.7,5.8,55,0.00,CLR,,0.20,WeatherDisplay:10.37,2013-08-02 18:56:00,
2013-08-02 15:01:00,81.8,64.6,29.80,NW,313,1.8,3.5,56,0.00,CLR,,0.20,WeatherDisplay:10.37,2013-08-02 19:01:00,
2013-08-02 15:06:00,81.2,66.9,29.79,SSW,198,5.4,12.0,62,0.00,CLR,,0.20,WeatherDisplay:10.37,2013-08-02 19:06:00,
2013-08-02 15:12:00,80.7,64.5,29.80,WNW,294,4.2,5.8,58,0.00,CLR,,0.20,WeatherDisplay:10.37,2013-08-02 19:12:00,
2013-08-02 15:17:00,80.5,65.3,29.80,SW,236,2.4,5.8,60,0.00,CLR,,0.20,WeatherDisplay:10.37,2013-08-02 19:17:00,
2013-08-02 15:22:00,81.2,65.0,29.80,SSW,205,2.8,6.9,58,0.00,CLR,,0.20,WeatherDisplay:10.37,2013-08-02 19:22:00,
2013-08-02 15:27:00,81.2,64.0,29.80,WSW,240,4.5,9.2,56,0.00,CLR,,0.20,WeatherDisplay:10.37,2013-08-02 19:27:00,
2013-08-02 15:32:00,80.9,64.7,29.80,West,265,0.5,2.3,58,0.00,CLR,,0.20,WeatherDisplay:10.37,2013-08-02 19:32:00,
2013-08-02 15:37:00,80.7,63.0,29.79,SW,235,3.9,6.9,55,0.00,CLR,,0.20,WeatherDisplay:10.37,2013-08-02 19:37:00,
2013-08-02 15:42:00,80.7,63.0,29.79,West,271,2.4,5.8,55,0.00,CLR,,0.20,WeatherDisplay:10.37,2013-08-02 19:42:00,
2013-08-02 15:47:00,81.1,63.9,29.78,WSW,243,4.5,11.5,56,0.00,CLR,,0.20,WeatherDisplay:10.37,2013-08-02 19:47:00,
2013-08-02 15:53:00,80.9,64.2,29.79,NW,311,3.7,4.6,57,0.00,CLR,,0.20,WeatherDisplay:10.37,2013-08-02 19:53:00,
2013-08-02 15:58:00,80.9,62.7,29.78,WSW,238,3.4,6.9,54,0.00,CLR,,0.20,WeatherDisplay:10.37,2013-08-02 19:58:00,
2013-08-02 16:03:00,80.7,63.5,29.78,West,269,2.3,4.6,56,0.00,CLR,,0.20,WeatherDisplay:10.37,2013-08-02 20:03:00,
2013-08-02 16:08:00,80.7,63.0,29.78,SW,219,2.0,4.6,55,0.00,CLR,,0.20,WeatherDisplay:10.37,2013-08-02 20:08:00,
2013-08-02 16:13:00,80.5,63.4,29.78,SSW,201,0.1,2.3,56,0.00,CLR,,0.20,WeatherDisplay:10.37,2013-08-02 20:13:00,
2013-08-02 16:19:00,80.9,63.7,29.79,NW,310,1.1,3.5,56,0.00,CLR,,0.20,WeatherDisplay:10.37,2013-08-02 20:19:00,
2013-08-02 16:24:00,81.4,62.1,29.78,WNW,290,2.3,4.0,52,0.00,CLR,,0.20,WeatherDisplay:10.37,2013-08-02 20:24:00,
2013-08-02 16:29:00,81.6,62.8,29.78,WNW,288,1.7,3.0,53,0.00,CLR,,0.20,WeatherDisplay:10.37,2013-08-02 20:29:00,
2013-08-02 16:34:00,81.8,65.6,29.79,WSW,248,1.1,3.5,58,0.00,CLR,,0.20,WeatherDisplay:10.37,2013-08-02 20:34:00,
2013-08-02 16:40:00,81.8,63.0,29.79,West,267,3.1,5.8,53,0.00,CLR,,0.20,WeatherDisplay:10.37,2013-08-02 20:40:00,
2013-08-02 16:45:00,81.6,63.3,29.79,NW,313,1.2,4.0,54,0.00,CLR,,0.20,WeatherDisplay:10.37,2013-08-02 20:45:00,
2013-08-02 16:50:00,81.4,62.1,29.79,WSW,242,5.9,11.5,52,0.00,CLR,,0.20,WeatherDisplay:10.37,2013-08-02 20:50:00,
2013-08-02 16:55:00,81.2,62.4,29.79,WNW,295,0.9,3.5,53,0.00,CLR,,0.20,WeatherDisplay:10.37,2013-08-02 20:55:00,
2013-08-02 17:00:00,81.2,63.0,29.79,West,272,2.4,4.6,54,0.00,CLR,,0.20,WeatherDisplay:10.37,2013-08-02 21:00:00,
2013-08-02 17:05:00,81.2,61.4,29.78,SE,146,0.9,3.5,51,0.00,CLR,,0.20,WeatherDisplay:10.37,2013-08-02 21:05:00,
2013-08-02 17:11:00,81.2,62.4,29.78,NW,306,1.8,2.3,53,0.00,CLR,,0.20,WeatherDisplay:10.37,2013-08-02 21:11:00,
2013-08-02 17:16:00,81.4,63.7,29.78,SW,225,0.7,5.8,55,0.00,CLR,,0.20,WeatherDisplay:10.37,2013-08-02 21:16:00,
2013-08-02 17:21:00,81.1,60.7,29.78,SSW,201,4.2,10.4,50,0.00,CLR,,0.20,WeatherDisplay:10.37,2013-08-02 21:21:00,
2013-08-02 17:26:00,80.3,62.1,29.78,WSW,246,3.6,5.8,54,0.00,CLR,,0.20,WeatherDisplay:10.37,2013-08-02 21:26:00,
2013-08-02 17:31:00,79.9,62.3,29.78,West,273,1.6,3.5,55,0.00,CLR,,0.20,WeatherDisplay:10.37,2013-08-02 21:31:00,
2013-08-02 17:37:00,79.8,62.2,29.78,WSW,245,4.3,5.8,55,0.00,CLR,,0.20,WeatherDisplay:10.37,2013-08-02 21:37:00,
2013-08-02 17:42:00,79.6,62.5,29.78,WSW,253,4.6,6.9,56,0.00,CLR,,0.20,WeatherDisplay:10.37,2013-08-02 21:42:00,
2013-08-02 17:47:00,79.2,63.6,29.78,WSW,250,1.3,4.0,59,0.00,CLR,,0.20,WeatherDisplay:10.37,2013-08-02 21:47:00,
2013-08-02 17:52:00,79.0,62.0,29.78,WSW,253,3.6,10.4,56,0.00,CLR,,0.20,WeatherDisplay:10.37,2013-08-02 21:52:00,
2013-08-02 17:57:00,79.0,63.4,29.78,SW,229,0.5,1.1,59,0.00,CLR,,0.20,WeatherDisplay:10.37,2013-08-02 21:57:00,
2013-08-02 18:02:00,79.0,63.0,29.78,WSW,250,1.0,3.5,58,0.00,CLR,,0.20,WeatherDisplay:10.37,2013-08-02 22:02:00,
2013-08-02 18:08:00,78.8,63.3,29.78,SW,219,1.3,3.5,59,0.00,CLR,,0.20,WeatherDisplay:10.37,2013-08-02 22:08:00,
2013-08-02 18:13:00,79.0,64.4,29.78,WSW,247,1.0,4.6,61,0.00,CLR,,0.20,WeatherDisplay:10.37,2013-08-02 22:13:00,
2013-08-02 18:18:00,78.8,63.3,29.79,SSW,206,0.3,3.5,59,0.00,CLR,,0.20,WeatherDisplay:10.37,2013-08-02 22:18:00,
2013-08-02 18:23:00,78.6,64.5,29.78,SSW,201,0.3,1.1,62,0.00,CLR,,0.20,WeatherDisplay:10.37,2013-08-02 22:23:00,
2013-08-02 18:28:00,78.6,64.0,29.78,SW,215,1.5,2.0,61,0.00,CLR,,0.20,WeatherDisplay:10.37,2013-08-02 22:28:00,
2013-08-02 18:33:00,78.6,64.5,29.78,SW,216,0.0,1.1,62,0.00,CLR,,0.20,WeatherDisplay:10.37,2013-08-02 22:33:00,
2013-08-02 18:38:00,78.5,63.9,29.78,SW,234,0.2,1.1,61,0.00,CLR,,0.20,WeatherDisplay:10.37,2013-08-02 22:38:00,
2013-08-02 18:44:00,78.1,64.0,29.78,WSW,243,0.0,1.1,62,0.00,CLR,,0.20,WeatherDisplay:10.37,2013-08-02 22:44:00,
2013-08-02 18:49:00,77.9,64.7,29.79,West,266,0.2,1.1,64,0.00,CLR,,0.20,WeatherDisplay:10.37,2013-08-02 22:49:00,
2013-08-02 18:54:00,77.6,64.9,29.79,West,266,0.1,1.1,65,0.00,CLR,,0.20,WeatherDisplay:10.37,2013-08-02 22:54:00,
2013-08-02 18:59:00,77.2,65.4,29.79,West,266,0.1,1.1,67,0.00,CLR,,0.20,WeatherDisplay:10.37,2013-08-02 22:59:00,
2013-08-02 19:04:00,76.8,65.0,29.79,West,266,0.1,1.1,67,0.00,CLR,,0.20,WeatherDisplay:10.37,2013-08-02 23:04:00,
2013-08-02 19:09:00,76.5,64.7,29.79,SW,229,0.0,0.0,67,0.00,CLR,,0.20,WeatherDisplay:10.37,2013-08-02 23:09:00,
2013-08-02 19:14:00,76.1,64.3,29.79,SW,225,0.0,0.0,67,0.00,CLR,,0.20,WeatherDisplay:10.37,2013-08-02 23:14:00,
2013-08-02 19:19:00,76.0,64.7,29.79,SW,225,0.1,1.1,68,0.00,CLR,,0.20,WeatherDisplay:10.37,2013-08-02 23:19:00,
2013-08-02 19:25:00,75.8,64.9,29.79,SW,225,0.0,0.0,69,0.00,CLR,,0.20,WeatherDisplay:10.37,2013-08-02 23:25:00,
2013-08-02 19:30:00,75.6,65.1,29.79,SW,225,0.1,0.0,70,0.00,CLR,,0.20,WeatherDisplay:10.37,2013-08-02 23:30:00,
2013-08-02 19:35:00,75.3,65.2,29.79,SSW,213,0.5,3.5,71,0.00,CLR,,0.20,WeatherDisplay:10.37,2013-08-02 23:35:00,
2013-08-02 19:40:00,74.9,65.3,29.79,SW,214,0.0,0.0,72,0.00,CLR,,0.20,WeatherDisplay:10.37,2013-08-02 23:40:00,
2013-08-02 19:46:00,74.6,65.4,29.79,SW,214,0.1,1.1,73,0.00,CLR,,0.20,WeatherDisplay:10.37,2013-08-02 23:46:00,
2013-08-02 19:51:00,74.2,65.4,29.79,SW,214,0.0,0.0,74,0.00,CLR,,0.20,WeatherDisplay:10.37,2013-08-02 23:51:00,
2013-08-02 19:56:00,73.9,65.9,29.80,SSW,213,0.2,1.1,76,0.00,CLR,,0.20,WeatherDisplay:10.37,2013-08-02 23:56:00,
2013-08-02 20:01:00,73.3,65.7,29.80,SW,229,0.0,0.0,77,0.00,CLR,,0.20,WeatherDisplay:10.37,2013-08-03 00:01:00,
2013-08-02 20:06:00,73.0,65.0,29.80,WSW,255,0.0,1.1,76,0.00,CLR,,0.20,WeatherDisplay:10.37,2013-08-03 00:06:00,
2013-08-02 20:11:00,72.7,65.1,29.80,WSW,255,0.0,0.0,77,0.00,CLR,,0.20,WeatherDisplay:10.37,2013-08-03 00:11:00,
2013-08-02 20:17:00,72.5,64.9,29.80,South,186,0.7,0.0,77,0.00,CLR,,0.20,WeatherDisplay:10.37,2013-08-03 00:17:00,
2013-08-02 20:22:00,72.3,64.7,29.80,WSW,241,1.1,0.0,77,0.00,CLR,,0.20,WeatherDisplay:10.37,2013-08-03 00:22:00,
2013-08-02 20:24:00,72.3,64.7,29.80,SW,228,0.2,2.3,77,0.00,CLR,,0.20,WeatherDisplay:10.37,2013-08-03 00:24:00,
2013-08-02 20:29:00,72.3,64.3,29.81,SW,227,0.1,1.1,76,0.00,CLR,,0.20,WeatherDisplay:10.37,2013-08-03 00:29:00,
2013-08-02 20:35:00,72.1,63.7,29.81,WSW,249,0.1,1.1,75,0.00,CLR,,0.20,WeatherDisplay:10.37,2013-08-03 00:35:00,
2013-08-02 20:40:00,72.1,63.7,29.81,SSW,200,1.2,3.5,75,0.00,CLR,,0.20,WeatherDisplay:10.37,2013-08-03 00:40:00,
2013-08-02 20:45:00,72.1,63.7,29.81,SW,214,0.0,2.3,75,0.00,CLR,,0.20,WeatherDisplay:10.37,2013-08-03 00:45:00,
2013-08-02 20:50:00,72.1,62.6,29.81,SSW,199,1.0,3.5,72,0.00,CLR,,0.20,WeatherDisplay:10.37,2013-08-03 00:50:00,
2013-08-02 20:55:00,72.3,63.2,29.81,SSW,210,0.0,2.3,73,0.00,CLR,,0.20,WeatherDisplay:10.37,2013-08-03 00:55:00,
2013-08-02 21:00:00,72.1,63.0,29.82,WSW,237,0.3,1.1,73,0.00,CLR,,0.20,WeatherDisplay:10.37,2013-08-03 01:00:00,
2013-08-02 21:05:00,72.0,63.3,29.82,WSW,237,0.0,1.1,74,0.00,CLR,,0.20,WeatherDisplay:10.37,2013-08-03 01:05:00,
2013-08-02 21:10:00,71.8,63.4,29.82,WSW,237,0.0,0.0,75,0.00,CLR,,0.20,WeatherDisplay:10.37,2013-08-03 01:10:00,
2013-08-02 21:15:00,71.5,63.5,29.82,WSW,237,0.0,0.0,76,0.00,CLR,,0.20,WeatherDisplay:10.37,2013-08-03 01:15:00,
2013-08-02 21:20:00,71.1,63.5,29.82,WSW,237,0.0,0.0,77,0.00,CLR,,0.20,WeatherDisplay:10.37,2013-08-03 01:20:00,
2013-08-02 21:26:00,70.8,63.6,29.82,WSW,237,0.0,0.0,78,0.00,CLR,,0.20,WeatherDisplay:10.37,2013-08-03 01:26:00,
2013-08-02 21:31:00,70.6,63.8,29.82,WSW,237,0.0,0.0,79,0.00,CLR,,0.20,WeatherDisplay:10.37,2013-08-03 01:31:00,
2013-08-02 21:36:00,70.3,63.8,29.82,WSW,237,0.0,0.0,80,0.00,CLR,,0.20,WeatherDisplay:10.37,2013-08-03 01:36:00,
2013-08-02 21:41:00,70.1,64.7,29.82,WSW,237,0.0,0.0,83,0.00,CLR,,0.20,WeatherDisplay:10.37,2013-08-03 01:41:00,
2013-08-02 21:46:00,69.8,64.4,29.82,WSW,237,0.0,0.0,83,0.00,CLR,,0.20,WeatherDisplay:10.37,2013-08-03 01:46:00,
2013-08-02 21:51:00,69.4,64.4,29.82,WSW,237,0.0,0.0,84,0.00,CLR,,0.20,WeatherDisplay:10.37,2013-08-03 01:51:00,
2013-08-02 21:56:00,69.3,64.3,29.82,WSW,237,0.0,0.0,84,0.00,CLR,,0.20,WeatherDisplay:10.37,2013-08-03 01:56:00,
2013-08-02 22:02:00,68.9,64.5,29.82,WSW,237,0.0,0.0,86,0.00,CLR,,0.20,WeatherDisplay:10.37,2013-08-03 02:02:00,
2013-08-02 22:07:00,68.6,64.6,29.82,WSW,237,0.0,0.0,87,0.00,CLR,,0.20,WeatherDisplay:10.37,2013-08-03 02:07:00,
2013-08-02 22:12:00,68.3,64.3,29.82,WSW,237,0.0,0.0,87,0.00,CLR,,0.20,WeatherDisplay:10.37,2013-08-03 02:12:00,
2013-08-02 22:17:00,67.9,64.2,29.82,WSW,237,0.0,0.0,88,0.00,CLR,,0.20,WeatherDisplay:10.37,2013-08-03 02:17:00,
2013-08-02 22:22:00,67.6,64.2,29.82,WSW,237,0.0,0.0,89,0.00,CLR,,0.20,WeatherDisplay:10.37,2013-08-03 02:22:00,
2013-08-02 22:27:00,67.3,64.3,29.82,WSW,237,0.0,0.0,90,0.00,CLR,,0.20,WeatherDisplay:10.37,2013-08-03 02:27:00,
2013-08-02 22:33:00,66.9,63.9,29.82,WSW,237,0.0,0.0,90,0.00,CLR,,0.20,WeatherDisplay:10.37,2013-08-03 02:33:00,
2013-08-02 22:38:00,66.8,64.1,29.82,WSW,240,0.0,0.0,91,0.00,CLR,,0.20,WeatherDisplay:10.37,2013-08-03 02:38:00,
2013-08-02 22:43:00,66.6,63.6,29.82,WSW,240,0.0,0.0,90,0.00,CLR,,0.20,WeatherDisplay:10.37,2013-08-03 02:43:00,
2013-08-02 22:48:00,66.4,63.7,29.82,WSW,240,0.0,0.0,91,0.00,CLR,,0.20,WeatherDisplay:10.37,2013-08-03 02:48:00,
2013-08-02 22:53:00,66.1,63.7,29.82,WSW,240,0.0,0.0,92,0.00,CLR,,0.20,WeatherDisplay:10.37,2013-08-03 02:53:00,
2013-08-02 22:58:00,65.8,63.4,29.82,WSW,240,0.0,0.0,92,0.00,CLR,,0.20,WeatherDisplay:10.37,2013-08-03 02:58:00,
2013-08-02 23:03:00,65.6,62.9,29.83,WSW,240,0.0,0.0,91,0.00,CLR,,0.20,WeatherDisplay:10.37,2013-08-03 03:03:00,
2013-08-02 23:09:00,65.5,62.8,29.83,WSW,240,0.0,0.0,91,0.00,CLR,,0.20,WeatherDisplay:10.37,2013-08-03 03:09:00,
2013-08-02 23:14:00,65.3,62.9,29.83,WSW,240,0.0,0.0,92,0.00,CLR,,0.20,WeatherDisplay:10.37,2013-08-03 03:14:00,
2013-08-02 23:19:00,65.2,62.8,29.83,WSW,240,0.0,0.0,92,0.00,CLR,,0.20,WeatherDisplay:10.37,2013-08-03 03:19:00,
2013-08-02 23:24:00,65.2,62.8,29.83,WSW,240,0.0,0.0,92,0.00,CLR,,0.20,WeatherDisplay:10.37,2013-08-03 03:24:00,
2013-08-02 23:29:00,65.2,62.8,29.83,WSW,240,0.0,0.0,92,0.00,CLR,,0.20,WeatherDisplay:10.37,2013-08-03 03:29:00,
2013-08-02 23:34:00,65.0,62.9,29.83,WSW,240,0.0,0.0,93,0.00,CLR,,0.20,WeatherDisplay:10.37,2013-08-03 03:34:00,
2013-08-02 23:39:00,64.8,62.7,29.83,WSW,240,0.0,0.0,93,0.00,CLR,,0.20,WeatherDisplay:10.37,2013-08-03 03:39:00,
2013-08-02 23:44:00,64.7,62.9,29.83,WSW,240,0.0,0.0,94,0.00,CLR,,0.20,WeatherDisplay:10.37,2013-08-03 03:44:00,
2013-08-02 23:50:00,64.5,62.7,29.83,WSW,240,0.0,0.0,94,0.00,CLR,,0.20,WeatherDisplay:10.37,2013-08-03 03:50:00,
2013-08-02 23:54:00,64.3,62.8,29.83,WSW,240,0.0,0.0,95,0.00,CLR,,0.20,WeatherDisplay:10.37,2013-08-03 03:54:00,